SCP
-0 -0 -0 -0 -0 -0 -0 -0 -0 -0 -0 -0 -0 -0 -0 -0 -0 -0 -0 -0 -0 -0 -0 -0 -0 -0 -0 0 -0 -0 -0 -0 -0 -0 0 0 -0 -0 0 -0 -0 -0 0 0 0 0 0
-0 -0 -0 -0 -0 -0 -0 -0 -0 -0 -0 -0 -0 -0 -0 -0 -0 -0 -0 -0 -0 -0 -0 -0 -0 -0 0 -0 -0 -0 -0 0 -0 -0 0 -0 0 -0 0 0 0 -0 0 0 0 0 0
-0 -0 -0 -0 -0 -0 -0 -0 -0 -0 -0 -0 -0 -0 -0 -0 -0 -0 -0 -0 -0 -0 -0 -0 -0 0 0 -0 0 -0 -0 0 -0 -0 -0 -0 -0 0 -0 0 -0 0 -0 -0 0 0 0
-0 -0 -0 -0 -0 -0 -0 -0 -0 -0 -0 -0 -0 -0 -0 -0 -0 -0 -0 -0 -0 -0 -0 -0 -0 0 0 0 0 0 0 0 0 0 0 0 0 0 -0 0 0 -0 0 0 0 0 0
-0 -0 -0 -0 -0 -0 -0 -0 -0 -0 -0 -0 -0 -0 -0 -0 -0 -0 -0 -0 -0 -0 -0 -0 -0 0 0 0 0 0 -0 -0 0 -0 0 0 0 0 -0 0 0 0 -0 0 0 0 0
-0 -0 -0 -0 -0 -0 -0 -0 -0 -0 -0 -0 -0 -0 -0 -0 -0 -0 -0 -0 0 -0 0 -0 0 -0 0 0 0 0 -0 0 0 0 0 0 0 0 0 0 0 0 0 0 0 0 0
-0 -0 -0 -0 -0 -0 -0 -0 -0 -0 -0 -0 -0 -0 -0 -0 0 0 0 0 0 0 0 -0 0 0 0 0 0 0 0 0 -0 0 0 -0 0 0 0 0 0 0 0 0 0 0 0
-0 -0 -0 -0 -0 -0 -0 -0 -0 -0 -0 -0 -0 -0 -0 -0 -0 -0 0 0 0 0 -0 -0 -0 -0 0 0 0 0 0 0 0 0 0 0 0 0 0 0 0 0 0 0 0 0 0
-0 -0 -0 -0 -0 -0 -0 -0 -0 -0 -0 -0 -0 -0 -0 -0 -0 -0 0 0 0 0 0 -0 -0 0 0 0 -0 0 0 0 0 0 0 0 -0 0 0 0 0 0 0 0 0 0 0
-0 -0 -0 -0 -0 -0 -0 -0 -0 -0 -0 -0 -0 -0 -0 -0 0 0 0 -0 0 0 0 0 0 0 0 0 0 0 0 0 0 0 0 0 0 0 0 0 0 0 0 0 0 0 0
-0 -0 -0 -0 -0 -0 -0 -0 -0 -0 -0 -0 -0 -0 -0 0 0 0 0 0 0 0 0 0 0 0 0 0 0 0 0 0 0 0 0 0 0 0 0 0 0 0 0 0 0 0 0
-0 -0 -0 -0 -0 -0 -0 -0 -0 -0 -0 -0 -0 -0 -0 0 0 0 0 0 0 0 0 0 0 0 0 0 0 0 0 0 0 0 0 0 -0 0 0 0 0 0 0 0 0 0 0
-0 -0 -0 -0 -0 -0 -0 -0 -0 -0 -0 -0 -0 -0 0 0 0 -0 0 0 -0 0 0 0 0 0 0 0 0 0 0 0 0 0 0 0 0 0 0 0 0 0 0 0 0 0 0
-0 -0 -0 -0 -0 -0 -0 -0 -0 -0 -0 -0 -0 0 0 0 -0 0 0 0 0 0 0 0 0 0 0 0 0 0 0 0 0 0 0 0 0 0 0 0 0 0 0 0 0 0 0
0 -0 -0 -0 -0 -0 -0 -0 -0 -0 -0 -0 -0 0 0 0 0 0 0 0 0 0 0 0 0 0 -0 0 0 0 0 0 0 0 0 0 0 -0 0 0 0 0 0 0 0 0 0
0 0 0 -0 -0 -0 -0 -0 -0 -0 -0 -0 -0 -0 0 0 0 0 0 0 0 0 0 0 0 0 0 0 0 0 0 0 0 0 0 0 0 0 0 -0 0 0 0 0 0 0 0
0 0 0 0 -0 -0 -0 -0 -0 -0 -0 -0 -0 0 -0 0 0 0 0 0 0 0 0 0 0 0 0 0 0 0 0 0 0 0 0 0 0 0 0 0 0 0 0 0 0 0 0
0 0 0 0 0 -0 -0 -0 -0 -0 -0 -0 -0 0 0 0 0 0 0 0 0 0 0 0 0 0 0 0 0 0 0 0 0 0 0 0 0 0 0 0 0 0 0 0 0 0 0
0 0 0 0 0 -0 -0 -0 -0 -0 -0 0 0 0 0 0 0 0 0 0 0 0 0 0 0 0 0 0 0 0 0 0 0 0 0 0 0 0 0 0 0 -0 0 0 0 0 0
0 0 0 0 0 -0 -0 -0 -0 -0 0 0 0 0 0 0 0 0 0 0 0 0 0 0 0 0 0 0 0 0 0 0 0 0 0 0 0 0 0 0 0 0 0 0 0 0 0
0 0 0 0 0 0 -0 -0 -0 -0 -0 0 0 0 0 0 0 0 0 0 0 0 0 0 0 0 0 0 0 0 0 0 0 0 0 0 0 0 0 0 0 0 0 0 0 0 0
0 0 0 0 0 0 0 0 -0 -0 -0 0 0 0 0 0 0 0 0 0 0 0 0 0 0 0 0 0 0 0 0 0 0 0 0 0 0 0 0 0 0 0 0 0 0 0 0
0 0 0 0 0 0 0 0 0 0 0 0 0 0 0 0 0 0 0 0 0 0 0 0 0 0 0 0 0 0 0 0 0 0 0 0 0 0 0 0 0 0 0 0 0 0 0
0 0 0 0 0 0 0 0 0 0 0 0 0 0 0 0 0 0 0 0 0 0 0 0 0 0 0 0 0 0 0 0 0 0 0 0 0 0 0 0 0 0 0 0 0 0 0
0 0 0 0 0 0 0 0 0 0 0 0 0 0 0 0 0 0 0 0 0 0 0 0 0 0 0 0 0 0 0 0 0 0 0 0 0 0 0 0 0 0 0 0 0 0 0
0 0 0 0 0 0 0 0 0 0 0 0 0 0 0 0 0 0 0 0 0 0 0 0 0 0 0 0 0 0 0 0 0 0 0 0 0 0 0 0 0 0 0 0 0 0 0
0 0 0 0 0 0 0 0 0 0 0 0 0 0 0 0 0 0 0 0 0 0 0 0 0 0 0 0 0 0 0 0 0 0 0 0 0 0 0 0 0 0 0 -0 0 0 0
0 0 0 0 0 0 0 0 0 0 0 0 0 0 0 0 0 0 0 0 0 0 0 0 0 0 0 0 0 0 0 0 0 0 0 0 0 0 0 0 0 0 0 0 0 0 0
0 0 0 0 0 0 0 0 0 0 0 0 0 0 0 0 0 0 0 0 0 0 0 0 0 0 0 0 0 0 0 0 0 0 0 0 0 0 0 0 0 0 0 0 0 0 0
Wind_Speed_500mb
52 50 49 48 46 43 39 34 27 18 14 12 10 9 13 20 22 16 14 12 11 9 7 9 12 12 18 18 7 8 15 24 26 29 24 33 19 24 13 15 9 7 2 10 1 8 7
53 52 51 49 47 45 42 37 31 22 13 10 8 8 12 19 18 12 9 6 5 4 2 6 9 11 15 18 2 6 12 14 17 24 22 25 26 29 20 9 6 9 15 12 11 16 11
52 52 53 52 51 48 44 40 33 24 13 6 5 6 11 15 13 8 6 2 1 2 1 3 10 18 15 13 3 7 9 7 13 16 24 21 19 25 23 15 8 10 8 16 19 24 10
50 52 52 53 54 52 48 44 36 25 14 3 2 5 8 10 9 7 6 3 4 4 7 11 14 17 15 10 9 8 8 20 10 15 14 18 10 21 21 21 14 9 8 6 23 25 18
51 51 52 54 56 57 54 50 40 30 16 5 4 8 9 8 7 6 6 6 7 7 8 13 11 17 21 6 7 2 6 18 15 23 19 27 20 22 20 7 9 7 7 9 11 22 12
54 54 54 55 56 59 59 55 43 36 23 8 2 10 11 9 6 4 5 8 11 12 6 16 23 20 20 13 9 7 2 18 22 27 31 29 19 8 8 6 4 10 13 15 15 19 7
55 57 58 58 58 58 60 58 48 39 29 15 1 7 13 11 6 4 5 7 14 3 15 19 20 9 18 7 10 7 3 19 23 25 10 18 3 12 4 12 10 11 14 15 15 21 10
54 57 60 61 59 58 58 60 53 42 33 21 6 4 10 9 3 2 2 6 23 17 21 32 30 28 6 3 14 14 6 19 21 15 30 14 11 13 12 16 14 13 16 18 14 14 16
53 56 60 61 59 58 56 57 55 46 35 24 12 6 11 10 9 6 4 11 20 20 11 29 41 24 14 13 23 21 12 18 23 18 20 11 16 31 9 12 13 12 10 16 17 18 15
50 54 57 60 61 57 55 53 52 45 37 25 14 11 14 12 2 16 25 16 20 14 4 11 16 20 19 12 17 7 11 9 12 13 16 12 28 30 15 6 13 10 21 22 23 16 7
48 51 55 57 59 59 54 51 47 43 35 26 14 12 14 7 13 19 18 17 26 3 4 16 14 12 7 15 16 10 3 2 11 12 6 15 24 22 11 5 16 12 6 12 19 15 15
45 49 52 56 57 57 55 49 46 41 30 23 12 11 7 11 15 24 22 19 10 3 9 14 16 16 14 24 26 23 4 16 26 13 10 19 47 10 10 15 10 12 16 15 10 9 7
41 46 50 53 55 56 55 49 45 41 34 16 9 5 3 8 21 26 20 12 4 6 7 9 5 12 15 10 19 14 7 8 7 8 14 25 21 21 33 12 13 16 15 10 9 9 12
38 43 48 52 54 55 55 51 44 42 38 24 8 3 5 3 14 24 7 7 6 19 30 9 13 13 9 12 6 9 5 10 18 17 6 7 15 31 36 17 7 9 3 8 12 6 15
36 40 45 49 52 53 54 53 45 41 39 29 7 7 6 2 8 14 10 2 5 11 17 17 17 12 17 1 9 5 8 6 9 12 7 7 9 43 28 23 8 9 7 16 9 9 9
34 38 43 47 49 53 53 53 48 40 38 27 13 9 17 3 20 6 2 10 7 21 17 15 10 11 16 14 13 15 13 12 9 22 19 7 10 13 24 33 16 9 11 12 7 9 20
34 38 42 45 47 50 53 54 50 42 36 28 15 7 1 8 9 7 4 7 16 24 20 12 13 13 15 15 17 14 11 15 18 17 21 9 6 11 15 8 21 24 15 11 1 5 3
33 39 42 44 45 47 50 52 51 45 35 23 13 4 2 15 3 7 1 4 9 21 19 12 2 12 11 16 14 13 15 11 11 10 6 3 3 7 15 38 23 15 13 10 3 18 14
33 36 37 41 43 45 47 48 44 44 42 42 25 9 3 11 4 8 8 7 10 13 13 11 11 15 14 9 6 10 12 23 18 7 9 5 5 9 17 13 22 20 28 26 25 4 11
31 32 32 36 40 43 45 45 42 30 33 34 13 7 9 3 17 12 9 11 10 9 5 5 10 6 8 10 13 9 13 14 11 7 23 14 6 10 11 22 26 25 31 34 23 2 7
30 31 30 32 35 39 42 43 41 30 18 23 12 9 10 7 14 16 9 11 12 6 13 7 7 5 10 3 11 8 18 15 31 15 12 10 10 10 17 29 35 39 39 23 18 11 2
27 28 28 29 31 33 37 40 42 35 11 14 13 14 20 19 14 11 5 1 5 13 13 10 9 17 15 8 8 8 15 10 8 7 11 8 6 12 16 23 31 37 24 23 23 20 4
28 27 26 26 26 26 31 34 38 38 25 12 21 7 6 18 14 6 2 8 10 8 5 6 12 7 11 13 28 30 38 39 28 11 7 6 3 7 10 19 29 15 16 17 14 17 18
30 29 27 25 25 22 25 27 28 31 27 20 25 11 10 8 15 5 11 8 6 7 4 18 11 6 11 30 38 35 47 51 38 37 41 9 7 5 10 14 5 6 10 14 18 22 20
35 31 30 27 26 22 21 24 21 21 21 16 21 14 8 8 27 28 8 9 9 16 15 14 6 4 23 17 6 10 11 4 19 29 15 19 5 5 4 2 18 11 14 8 9 33 7
43 36 33 29 27 23 19 21 19 17 13 10 13 23 1 13 11 18 20 19 4 10 12 11 13 9 7 4 5 6 7 9 6 9 31 7 4 4 4 8 7 3 15 25 34 9 35
49 43 37 31 28 25 20 19 16 14 13 14 8 20 10 10 7 16 10 5 11 9 6 11 9 7 2 2 6 6 7 9 6 7 10 9 10 6 7 6 8 12 24 22 9 14 53
50 43 41 36 30 26 21 17 12 11 11 7 10 19 16 10 22 3 3 6 12 8 4 12 9 5 6 2 4 6 5 7 9 10 10 5 4 4 7 7 8 42 17 7 17 40 51
54 47 44 40 35 28 23 19 13 10 11 3 8 20 31 16 18 13 13 21 20 10 5 1 2 6 7 5 8 7 6 5 5 5 10 5 3 8 12 9 26 43 28 45 52 55 51
Wind_Direction_500mb
43 41 40 38 36 34 31 28 25 23 21 29 44 72 116 136 141 131 118 103 95 108 158 223 262 292 331 334 220 132 45 16 5 353 348 6 7 2 11 358 56 332 2 125 311 16 306
40 38 36 34 32 30 27 25 24 23 25 29 54 91 128 146 151 145 137 114 83 79 144 259 286 318 340 297 185 48 39 15 11 13 19 3 351 340 317 346 47 338 330 316 161 231 174
38 36 34 31 28 26 23 20 18 19 24 35 62 112 139 153 165 171 166 151 342 314 143 285 310 327 322 310 150 330 18 321 22 356 356 348 318 333 333 320 301 257 245 273 248 204 174
36 33 32 29 27 24 20 16 13 15 19 24 143 154 157 168 180 191 208 243 283 265 220 277 291 316 292 211 191 269 300 300 321 333 311 325 349 299 278 281 313 265 284 243 226 204 191
36 33 30 28 25 23 20 17 17 18 17 22 207 187 185 188 196 219 243 261 276 272 240 266 280 325 283 235 164 287 331 323 348 321 294 287 291 263 278 241 332 280 314 349 11 198 157
35 32 29 26 24 22 20 19 20 17 16 11 185 200 194 193 204 222 251 277 290 271 249 250 257 300 229 244 152 245 252 326 306 302 297 258 251 240 305 94 220 346 347 335 321 315 258
31 30 28 25 23 22 20 19 18 17 15 15 55 193 193 192 205 263 282 339 339 306 232 224 290 263 155 119 256 267 231 315 303 299 280 261 15 281 357 79 26 346 331 315 295 283 354
27 24 24 24 21 20 20 18 18 18 20 19 35 144 181 178 166 209 220 307 338 313 309 265 257 267 67 81 258 217 358 332 351 311 303 334 247 278 8 19 360 325 299 288 285 341 13
23 22 20 20 21 18 19 19 17 18 21 27 40 102 142 144 142 113 14 354 337 325 283 295 223 235 216 230 268 89 42 354 323 320 332 333 293 327 43 357 322 312 338 351 333 335 353
19 19 18 16 18 18 16 18 17 17 20 28 48 106 129 124 62 326 283 355 330 340 327 221 190 223 158 216 267 121 50 358 318 305 338 317 332 321 338 301 44 2 351 350 338 351 293
15 15 15 14 15 15 15 15 15 16 18 25 57 110 114 63 21 19 355 329 322 349 307 141 161 146 230 203 150 121 323 157 284 308 332 269 298 296 321 50 31 289 318 306 294 293 315
9 10 12 11 12 12 13 11 12 12 11 22 48 126 115 9 345 347 325 324 319 22 250 171 148 196 222 206 238 147 177 235 266 228 334 308 317 304 55 22 358 330 354 324 339 306 323
5 6 7 9 8 8 9 9 5 7 5 355 34 90 98 51 2 332 314 308 1 227 151 127 190 172 212 255 191 184 127 304 260 58 12 318 22 59 31 11 346 14 13 336 346 349 252
0 2 3 5 5 4 4 6 4 358 359 346 291 318 108 84 359 314 347 8 259 360 21 46 9 335 299 260 98 12 338 284 51 64 49 10 324 29 352 335 295 351 29 164 267 274 282
354 357 359 1 2 2 1 1 2 0 352 357 336 234 286 65 322 335 341 299 318 22 15 358 327 286 291 299 76 122 280 60 70 74 98 14 287 338 332 323 61 313 310 244 272 297 303
348 352 354 357 359 359 358 357 358 0 357 357 349 276 288 176 322 62 33 249 67 52 9 359 343 342 348 18 5 27 14 42 91 71 94 6 320 277 307 333 315 263 296 347 309 308 278
342 346 349 353 356 357 357 356 352 355 360 352 331 319 74 335 289 277 236 308 74 81 46 10 13 338 343 0 10 3 340 39 34 38 27 5 156 294 338 292 328 325 321 328 253 10 270
334 339 342 347 352 355 356 356 352 352 358 354 344 305 311 7 255 218 56 51 20 23 26 11 331 16 36 14 360 346 339 108 103 93 34 92 261 300 288 288 289 348 350 358 127 287 251
329 335 338 342 348 352 354 355 356 351 355 354 336 276 65 16 38 341 356 108 76 42 39 12 337 43 27 337 334 314 348 144 133 117 143 116 339 340 326 336 345 356 330 317 312 0 326
319 333 339 340 344 349 353 353 354 356 347 348 341 336 31 16 75 17 9 339 123 115 102 19 329 360 344 7 348 332 342 358 31 12 144 117 169 176 227 270 297 314 309 308 298 164 309
309 323 335 338 341 345 350 354 356 355 4 356 350 30 15 324 23 339 348 306 316 104 37 304 310 22 49 2 330 289 341 346 0 119 145 130 202 245 289 315 311 307 314 352 353 351 112
296 310 324 332 339 345 349 355 359 2 16 13 22 3 343 300 283 294 245 355 13 47 15 337 18 17 11 339 345 336 1 20 277 315 19 350 293 308 286 297 299 305 329 5 359 7 297
285 297 308 321 331 341 348 355 1 9 20 54 359 319 324 289 291 264 66 68 64 93 286 70 24 357 316 8 333 306 290 275 252 262 268 246 253 322 265 296 313 324 15 358 340 325 326
275 284 295 308 317 330 342 352 2 12 22 31 358 5 314 292 316 57 66 59 332 36 7 330 306 295 4 319 306 290 271 254 242 242 230 213 264 249 277 328 275 176 59 344 311 306 317
267 273 281 293 303 311 327 340 351 5 16 11 5 11 357 307 323 357 59 32 357 280 211 221 62 94 337 337 319 309 308 103 226 231 193 161 165 254 315 287 267 313 27 319 315 303 78
259 263 269 278 289 290 308 329 335 343 1 337 350 3 343 308 15 5 334 309 346 349 322 147 124 38 24 308 265 251 261 333 350 15 105 131 259 155 262 284 307 102 350 325 294 287 5
254 256 259 267 273 279 289 315 327 335 345 353 317 5 351 287 26 15 34 347 0 346 297 54 355 13 24 306 294 298 300 14 16 21 336 351 345 298 315 281 258 31 20 358 38 294 316
250 249 251 254 260 270 276 292 304 330 345 356 306 350 10 299 290 337 32 21 351 342 12 0 2 18 344 295 285 347 6 353 12 349 345 301 1 327 359 298 309 4 12 87 264 305 319
245 247 244 246 247 259 262 268 275 307 332 351 49 347 336 308 245 254 265 259 233 237 255 277 244 291 52 27 16 355 335 313 23 288 326 334 249 195 173 236 356 341 344 339 331 322 324
Wind_Speed_850mb
52 50 49 48 46 43 39 34 27 18 14 12 10 9 13 20 22 16 14 12 11 9 7 9 12 12 18 18 7 8 15 24 26 29 24 33 19 24 13 15 9 7 2 10 1 8 7
53 52 51 49 47 45 42 37 31 22 13 10 8 8 12 19 18 12 9 6 5 4 2 6 9 11 15 18 2 6 12 14 17 24 22 25 26 29 20 9 6 9 15 12 11 16 11
52 52 53 52 51 48 44 40 33 24 13 6 5 6 11 15 13 8 6 2 1 2 1 3 10 18 15 13 3 7 9 7 13 16 24 21 19 25 23 15 8 10 8 16 19 24 10
50 52 52 53 54 52 48 44 36 25 14 3 2 5 8 10 9 7 6 3 4 4 7 11 14 17 15 10 9 8 8 20 10 15 14 18 10 21 21 21 14 9 8 6 23 25 18
51 51 52 54 56 57 54 50 40 30 16 5 4 8 9 8 7 6 6 6 7 7 8 13 11 17 21 6 7 2 6 18 15 23 19 27 20 22 20 7 9 7 7 9 11 22 12
54 54 54 55 56 59 59 55 43 36 23 8 2 10 11 9 6 4 5 8 11 12 6 16 23 20 20 13 9 7 2 18 22 27 31 29 19 8 8 6 4 10 13 15 15 19 7
55 57 58 58 58 58 60 58 48 39 29 15 1 7 13 11 6 4 5 7 14 3 15 19 20 9 18 7 10 7 3 19 23 25 10 18 3 12 4 12 10 11 14 15 15 21 10
54 57 60 61 59 58 58 60 53 42 33 21 6 4 10 9 3 2 2 6 23 17 21 32 30 28 6 3 14 14 6 19 21 15 30 14 11 13 12 16 14 13 16 18 14 14 16
53 56 60 61 59 58 56 57 55 46 35 24 12 6 11 10 9 6 4 11 20 20 11 29 41 24 14 13 23 21 12 18 23 18 20 11 16 31 9 12 13 12 10 16 17 18 15
50 54 57 60 61 57 55 53 52 45 37 25 14 11 14 12 2 16 25 16 20 14 4 11 16 20 19 12 17 7 11 9 12 13 16 12 28 30 15 6 13 10 21 22 23 16 7
48 51 55 57 59 59 54 51 47 43 35 26 14 12 14 7 13 19 18 17 26 3 4 16 14 12 7 15 16 10 3 2 11 12 6 15 24 22 11 5 16 12 6 12 19 15 15
45 49 52 56 57 57 55 49 46 41 30 23 12 11 7 11 15 24 22 19 10 3 9 14 16 16 14 24 26 23 4 16 26 13 10 19 47 10 10 15 10 12 16 15 10 9 7
41 46 50 53 55 56 55 49 45 41 34 16 9 5 3 8 21 26 20 12 4 6 7 9 5 12 15 10 19 14 7 8 7 8 14 25 21 21 33 12 13 16 15 10 9 9 12
38 43 48 52 54 55 55 51 44 42 38 24 8 3 5 3 14 24 7 7 6 19 30 9 13 13 9 12 6 9 5 10 18 17 6 7 15 31 36 17 7 9 3 8 12 6 15
36 40 45 49 52 53 54 53 45 41 39 29 7 7 6 2 8 14 10 2 5 11 17 17 17 12 17 1 9 5 8 6 9 12 7 7 9 43 28 23 8 9 7 16 9 9 9
34 38 43 47 49 53 53 53 48 40 38 27 13 9 17 3 20 6 2 10 7 21 17 15 10 11 16 14 13 15 13 12 9 22 19 7 10 13 24 33 16 9 11 12 7 9 20
34 38 42 45 47 50 53 54 50 42 36 28 15 7 1 8 9 7 4 7 16 24 20 12 13 13 15 15 17 14 11 15 18 17 21 9 6 11 15 8 21 24 15 11 1 5 3
33 39 42 44 45 47 50 52 51 45 35 23 13 4 2 15 3 7 1 4 9 21 19 12 2 12 11 16 14 13 15 11 11 10 6 3 3 7 15 38 23 15 13 10 3 18 14
33 36 37 41 43 45 47 48 44 44 42 42 25 9 3 11 4 8 8 7 10 13 13 11 11 15 14 9 6 10 12 23 18 7 9 5 5 9 17 13 22 20 28 26 25 4 11
31 32 32 36 40 43 45 45 42 30 33 34 13 7 9 3 17 12 9 11 10 9 5 5 10 6 8 10 13 9 13 14 11 7 23 14 6 10 11 22 26 25 31 34 23 2 7
30 31 30 32 35 39 42 43 41 30 18 23 12 9 10 7 14 16 9 11 12 6 13 7 7 5 10 3 11 8 18 15 31 15 12 10 10 10 17 29 35 39 39 23 18 11 2
27 28 28 29 31 33 37 40 42 35 11 14 13 14 20 19 14 11 5 1 5 13 13 10 9 17 15 8 8 8 15 10 8 7 11 8 6 12 16 23 31 37 24 23 23 20 4
28 27 26 26 26 26 31 34 38 38 25 12 21 7 6 18 14 6 2 8 10 8 5 6 12 7 11 13 28 30 38 39 28 11 7 6 3 7 10 19 29 15 16 17 14 17 18
30 29 27 25 25 22 25 27 28 31 27 20 25 11 10 8 15 5 11 8 6 7 4 18 11 6 11 30 38 35 47 51 38 37 41 9 7 5 10 14 5 6 10 14 18 22 20
35 31 30 27 26 22 21 24 21 21 21 16 21 14 8 8 27 28 8 9 9 16 15 14 6 4 23 17 6 10 11 4 19 29 15 19 5 5 4 2 18 11 14 8 9 33 7
43 36 33 29 27 23 19 21 19 17 13 10 13 23 1 13 11 18 20 19 4 10 12 11 13 9 7 4 5 6 7 9 6 9 31 7 4 4 4 8 7 3 15 25 34 9 35
49 43 37 31 28 25 20 19 16 14 13 14 8 20 10 10 7 16 10 5 11 9 6 11 9 7 2 2 6 6 7 9 6 7 10 9 10 6 7 6 8 12 24 22 9 14 53
50 43 41 36 30 26 21 17 12 11 11 7 10 19 16 10 22 3 3 6 12 8 4 12 9 5 6 2 4 6 5 7 9 10 10 5 4 4 7 7 8 42 17 7 17 40 51
54 47 44 40 35 28 23 19 13 10 11 3 8 20 31 16 18 13 13 21 20 10 5 1 2 6 7 5 8 7 6 5 5 5 10 5 3 8 12 9 26 43 28 45 52 55 51
Wind_Direction_850mb
43 41 40 38 36 34 31 28 25 23 21 29 44 72 116 136 141 131 118 103 95 108 158 223 262 292 331 334 220 132 45 16 5 353 348 6 7 2 11 358 56 332 2 125 311 16 306
40 38 36 34 32 30 27 25 24 23 25 29 54 91 128 146 151 145 137 114 83 79 144 259 286 318 340 297 185 48 39 15 11 13 19 3 351 340 317 346 47 338 330 316 161 231 174
38 36 34 31 28 26 23 20 18 19 24 35 62 112 139 153 165 171 166 151 342 314 143 285 310 327 322 310 150 330 18 321 22 356 356 348 318 333 333 320 301 257 245 273 248 204 174
36 33 32 29 27 24 20 16 13 15 19 24 143 154 157 168 180 191 208 243 283 265 220 277 291 316 292 211 191 269 300 300 321 333 311 325 349 299 278 281 313 265 284 243 226 204 191
36 33 30 28 25 23 20 17 17 18 17 22 207 187 185 188 196 219 243 261 276 272 240 266 280 325 283 235 164 287 331 323 348 321 294 287 291 263 278 241 332 280 314 349 11 198 157
35 32 29 26 24 22 20 19 20 17 16 11 185 200 194 193 204 222 251 277 290 271 249 250 257 300 229 244 152 245 252 326 306 302 297 258 251 240 305 94 220 346 347 335 321 315 258
31 30 28 25 23 22 20 19 18 17 15 15 55 193 193 192 205 263 282 339 339 306 232 224 290 263 155 119 256 267 231 315 303 299 280 261 15 281 357 79 26 346 331 315 295 283 354
27 24 24 24 21 20 20 18 18 18 20 19 35 144 181 178 166 209 220 307 338 313 309 265 257 267 67 81 258 217 358 332 351 311 303 334 247 278 8 19 360 325 299 288 285 341 13
23 22 20 20 21 18 19 19 17 18 21 27 40 102 142 144 142 113 14 354 337 325 283 295 223 235 216 230 268 89 42 354 323 320 332 333 293 327 43 357 322 312 338 351 333 335 353
19 19 18 16 18 18 16 18 17 17 20 28 48 106 129 124 62 326 283 355 330 340 327 221 190 223 158 216 267 121 50 358 318 305 338 317 332 321 338 301 44 2 351 350 338 351 293
15 15 15 14 15 15 15 15 15 16 18 25 57 110 114 63 21 19 355 329 322 349 307 141 161 146 230 203 150 121 323 157 284 308 332 269 298 296 321 50 31 289 318 306 294 293 315
9 10 12 11 12 12 13 11 12 12 11 22 48 126 115 9 345 347 325 324 319 22 250 171 148 196 222 206 238 147 177 235 266 228 334 308 317 304 55 22 358 330 354 324 339 306 323
5 6 7 9 8 8 9 9 5 7 5 355 34 90 98 51 2 332 314 308 1 227 151 127 190 172 212 255 191 184 127 304 260 58 12 318 22 59 31 11 346 14 13 336 346 349 252
0 2 3 5 5 4 4 6 4 358 359 346 291 318 108 84 359 314 347 8 259 360 21 46 9 335 299 260 98 12 338 284 51 64 49 10 324 29 352 335 295 351 29 164 267 274 282
354 357 359 1 2 2 1 1 2 0 352 357 336 234 286 65 322 335 341 299 318 22 15 358 327 286 291 299 76 122 280 60 70 74 98 14 287 338 332 323 61 313 310 244 272 297 303
348 352 354 357 359 359 358 357 358 0 357 357 349 276 288 176 322 62 33 249 67 52 9 359 343 342 348 18 5 27 14 42 91 71 94 6 320 277 307 333 315 263 296 347 309 308 278
342 346 349 353 356 357 357 356 352 355 360 352 331 319 74 335 289 277 236 308 74 81 46 10 13 338 343 0 10 3 340 39 34 38 27 5 156 294 338 292 328 325 321 328 253 10 270
334 339 342 347 352 355 356 356 352 352 358 354 344 305 311 7 255 218 56 51 20 23 26 11 331 16 36 14 360 346 339 108 103 93 34 92 261 300 288 288 289 348 350 358 127 287 251
329 335 338 342 348 352 354 355 356 351 355 354 336 276 65 16 38 341 356 108 76 42 39 12 337 43 27 337 334 314 348 144 133 117 143 116 339 340 326 336 345 356 330 317 312 0 326
319 333 339 340 344 349 353 353 354 356 347 348 341 336 31 16 75 17 9 339 123 115 102 19 329 360 344 7 348 332 342 358 31 12 144 117 169 176 227 270 297 314 309 308 298 164 309
309 323 335 338 341 345 350 354 356 355 4 356 350 30 15 324 23 339 348 306 316 104 37 304 310 22 49 2 330 289 341 346 0 119 145 130 202 245 289 315 311 307 314 352 353 351 112
296 310 324 332 339 345 349 355 359 2 16 13 22 3 343 300 283 294 245 355 13 47 15 337 18 17 11 339 345 336 1 20 277 315 19 350 293 308 286 297 299 305 329 5 359 7 297
285 297 308 321 331 341 348 355 1 9 20 54 359 319 324 289 291 264 66 68 64 93 286 70 24 357 316 8 333 306 290 275 252 262 268 246 253 322 265 296 313 324 15 358 340 325 326
275 284 295 308 317 330 342 352 2 12 22 31 358 5 314 292 316 57 66 59 332 36 7 330 306 295 4 319 306 290 271 254 242 242 230 213 264 249 277 328 275 176 59 344 311 306 317
267 273 281 293 303 311 327 340 351 5 16 11 5 11 357 307 323 357 59 32 357 280 211 221 62 94 337 337 319 309 308 103 226 231 193 161 165 254 315 287 267 313 27 319 315 303 78
259 263 269 278 289 290 308 329 335 343 1 337 350 3 343 308 15 5 334 309 346 349 322 147 124 38 24 308 265 251 261 333 350 15 105 131 259 155 262 284 307 102 350 325 294 287 5
254 256 259 267 273 279 289 315 327 335 345 353 317 5 351 287 26 15 34 347 0 346 297 54 355 13 24 306 294 298 300 14 16 21 336 351 345 298 315 281 258 31 20 358 38 294 316
250 249 251 254 260 270 276 292 304 330 345 356 306 350 10 299 290 337 32 21 351 342 12 0 2 18 344 295 285 347 6 353 12 349 345 301 1 327 359 298 309 4 12 87 264 305 319
245 247 244 246 247 259 262 268 275 307 332 351 49 347 336 308 245 254 265 259 233 237 255 277 244 291 52 27 16 355 335 313 23 288 326 334 249 195 173 236 356 341 344 339 331 322 324